Other Public Products
Issued by NWS Charleston, SC

Current Version | Previous Version | Graphics & Text | Print | Product List | Glossary On
Versions: 1 2 3 4 5 6 7 8 9 10 11 12 13 14 15 16 17 18 19 20 21 22 23 24 25 26 27 28 29 30 31 32 33 34 35 36 37 38 39 40 41 42 43 44 45 46 47 48 49 50
000 FPUS82 KCHS 191827 OPUCHS TEST...KCHS/KSAV Gateway Observations...TEST National Weather Service Charleston SC 100 PM EST SUN FEB 19 2017 NOTE: "fair" indicates few or no clouds below 12,000 feet with no significant weather and/or obstructions to visibility. SCZ050-WAZ558-NCZ071-TXZ119-213-PAZ071-DCZ001-FLZ074-172-MI076- NYZ176-178-MAZ016-IL014-TNZ027-NJZ106-GAZ044-MD014-191900- ...Gateway Observations for Charleston International... CITY SKY/WX TMP DP RH WIND PRES REMARKS Chas Airport MOSUNNY 74 48 39 NW9G22 29.99F 6HR MIN TEMP: 49; 6HR MAX TEMP: 74; Seattle PTSUNNY 45 40 82 S10 29.45R 6HR MIN TEMP: 40; 6HR MAX TEMP: 45; Charlotte MOSUNNY 68 43 40 N8 30.04S 6HR MIN TEMP: 39; 6HR MAX TEMP: 68; Dallas DFW CLOUDY 71 66 84 SE14 29.89F HAZE 6HR MIN TEMP: 58; 6HR MAX TEMP: 71; Dallas Love CLOUDY 72 65 78 SE12 29.90F HAZE 6HR MIN TEMP: 61; 6HR MAX TEMP: 72; 6HR PCP: TRACE; Philladelphia PTSUNNY 66 40 38 SW8 29.84F 6HR MIN TEMP: 58; 6HR MAX TEMP: 67; Wash National MOSUNNY 68 44 42 N7 29.91F 6HR MIN TEMP: 55; 6HR MAX TEMP: 69; Baltimore MOSUNNY 69 43 38 W14G21 29.88F 6HR MIN TEMP: 56; 6HR MAX TEMP: 69; 6HR PCP: TRACE; Miami PTSUNNY 82 64 54 W10 30.03F 6HR MIN TEMP: 69; 6HR MAX TEMP: 84; Detroit MOSUNNY 62 32 32 W10 30.00F 6HR MIN TEMP: 38; 6HR MAX TEMP: 63; Newark CLOUDY 66 35 31 W13G22 29.81S 6HR MIN TEMP: 51; 6HR MAX TEMP: 66; Laguardia PTSUNNY 64 34 32 NW12 29.79F 6HR MIN TEMP: 54; 6HR MAX TEMP: 64; J F K CLOUDY 63 39 41 W8 29.81F 6HR MIN TEMP: 48; 6HR MAX TEMP: 64; Boston Logan PTSUNNY 56 34 43 W22G31 29.67F 6HR MIN TEMP: 41; 6HR MAX TEMP: 57; Ft. Lauderdale MOSUNNY 86 66 51 W15G22 30.01F 6HR MIN TEMP: 71; 6HR MAX TEMP: 86; Chicago O`Hare MOSUNNY 63 27 25 SE6 30.05S 6HR MIN TEMP: 37; 6HR MAX TEMP: 63; Chicago Midway MOSUNNY 63 28 26 S3 30.06S 6HR MIN TEMP: 38; 6HR MAX TEMP: 63; Houston Bush CLOUDY 72 68 87 SE21G28 29.95F FOG 6HR MIN TEMP: 70; 6HR MAX TEMP: 72; 6HR PCP: TRACE; Houston Hobby CLOUDY 72 68 87 SE9G21 29.94F 6HR MIN TEMP: 69; 6HR MAX TEMP: 72; 6HR PCP: TRACE; Nashville CLOUDY 62 50 64 NE6 30.12F 6HR MIN TEMP: 45; 6HR MAX TEMP: 64; Atlanta CLOUDY 64 50 60 NW12 30.10S 6HR MIN TEMP: 53; 6HR MAX TEMP: 65; $$ GAZ044-118-TXZ119-213-NCZ071-DCZ001-MDZ014-506-PAZ021-071-NJZ106- NYZ176-178-MAZ106-OHZ011-021-055-MIZ076-KYZ091-ILZ014-INZ047- MNZ060-191900- ...Gateway Observations for Savannah International... CITY SKY/WX TMP DP RH WIND PRES REMARKS Savannah Arpt MOSUNNY 75 52 44 NW10 30.03F 6HR MIN TEMP: 47; 6HR MAX TEMP: 75; Atlanta CLOUDY 64 50 60 NW12 30.10S 6HR MIN TEMP: 53; 6HR MAX TEMP: 65; Charlotte MOSUNNY 68 43 40 N8 30.04S 6HR MIN TEMP: 39; 6HR MAX TEMP: 68; Dallas DFW CLOUDY 71 66 84 SE14 29.89F HAZE 6HR MIN TEMP: 58; 6HR MAX TEMP: 71; Houston Bush CLOUDY 72 68 87 SE21G28 29.95F FOG 6HR MIN TEMP: 70; 6HR MAX TEMP: 72; 6HR PCP: TRACE; Wash National MOSUNNY 68 44 42 N7 29.91F 6HR MIN TEMP: 55; 6HR MAX TEMP: 69; Wash Dulles MOSUNNY 67 43 41 NW14 29.93F 6HR MIN TEMP: 56; 6HR MAX TEMP: 67; Baltimore MOSUNNY 69 43 38 W14G21 29.88F 6HR MIN TEMP: 56; 6HR MAX TEMP: 69; 6HR PCP: TRACE; Philadelphia PTSUNNY 66 40 38 SW8 29.84F 6HR MIN TEMP: 58; 6HR MAX TEMP: 67; Newark CLOUDY 66 35 31 W13G22 29.81S 6HR MIN TEMP: 51; 6HR MAX TEMP: 66; Laguardia PTSUNNY 64 34 32 NW12 29.79F 6HR MIN TEMP: 54; 6HR MAX TEMP: 64; J F K CLOUDY 63 39 41 W8 29.81F 6HR MIN TEMP: 48; 6HR MAX TEMP: 64; Boston PTSUNNY 56 34 43 W22G31 29.67F 6HR MIN TEMP: 41; 6HR MAX TEMP: 57; Pittsburg SUNNY 59 42 53 W9 29.98S 6HR MIN TEMP: 44; 6HR MAX TEMP: 60; Akron MOSUNNY 61 40 45 W13 30.00S 6HR MIN TEMP: 36; 6HR MAX TEMP: 61; Cleveland MOSUNNY 62 33 33 W15 30.02F 6HR MIN TEMP: 44; 6HR MAX TEMP: 62; Cincinnati CLOUDY 52 46 80 SW3 30.10F 6HR MIN TEMP: 48; 6HR MAX TEMP: 52; Columbus CLOUDY 47 45 91 SW12 30.08F Detroit MOSUNNY 62 32 32 W10 30.00F 6HR MIN TEMP: 38; 6HR MAX TEMP: 63; Chicago O`Hare MOSUNNY 63 27 25 SE6 30.05S 6HR MIN TEMP: 37; 6HR MAX TEMP: 63; Minneapolis PTSUNNY 55 38 52 SE10 29.93S 6HR MIN TEMP: 34; 6HR MAX TEMP: 55; Indianapolis MOSUNNY 56 46 69 VRB6 30.09S 6HR MIN TEMP: 48; 6HR MAX TEMP: 56; $$

USA.gov is the U.S. government's official web portal to all federal, state and local government web resources and services.